This is the latest recevied weather packets stored in our database for station/object CALDNA-WX. If no packets are shown the sender has not sent any weather packets the latest 10 day(s).
| Time | Temp. | Humidity | Pressure | Rain* | Wind** | Luminosity | Snow |
|---|---|---|---|---|---|---|---|
| 1777946451 | 17.78° C | 59% | 972.4 hPa | 0 mm | - | - | - |
| 1777945523 | 17.78° C | 58% | 971.5 hPa | 0 mm | - | - | - |
| 1777944641 | 17.78° C | 58% | 971.5 hPa | 0 mm | - | - | - |
| 1777943724 | 17.78° C | 58% | 971.5 hPa | 0 mm | - | - | - |
| 1777942847 | 18.33° C | 58% | 971.5 hPa | 0 mm | - | - | - |
| 1777941923 | 18.89° C | 43% | 972.1 hPa | 0 mm | - | - | - |
| 1777941040 | 19.44° C | 41% | 972.8 hPa | 0 mm | - | - | - |
| 1777940122 | 19.44° C | 41% | 972.7 hPa | 0 mm | - | - | - |
| 1777939250 | 20° C | 41% | 972.7 hPa | 0 mm | - | - | - |
| 1777938322 | 20.56° C | 35% | 972.9 hPa | 0 mm | - | - | - |
| 1777937441 | 21.11° C | 35% | 972.6 hPa | 0 mm | - | - | - |
| 1777936523 | 21.67° C | 35% | 972.6 hPa | 0 mm | - | - | - |
| 1777935648 | 21.67° C | 35% | 972.6 hPa | 0 mm | - | - | - |
| 1777934722 | 22.22° C | 35% | 972.6 hPa | 0 mm | - | - | - |
| 1777933843 | 22.22° C | 37% | 972.9 hPa | 0 mm | - | - | - |
| 1777932922 | 22.22° C | 37% | 972.9 hPa | 0 mm | - | - | - |
| 1777932054 | 22.22° C | 37% | 972.9 hPa | 0 mm | - | - | - |
| 1777931121 | 22.78° C | 35% | 973.8 hPa | 0 mm | - | - | - |
| 1777930243 | 22.78° C | 35% | 973.8 hPa | 0 mm | - | - | - |
| 1777929321 | 22.78° C | 31% | 972.8 hPa | 0 mm | - | - | - |
| 1777928451 | 22.22° C | 31% | 972.8 hPa | 0 mm | - | - | - |
| 1777927526 | 22.22° C | 33% | 973.6 hPa | 0 mm | - | - | - |
| 1777926637 | 22.78° C | 33% | 973.6 hPa | 0 mm | - | - | - |
| 1777925727 | 22.78° C | 33% | 973.6 hPa | 0 mm | - | - | - |
| 1777924848 | 22.78° C | 38% | 972.9 hPa | 0 mm | - | - | - |
* Rain latest hour (hover to see other rain measurements)
** Current wind speed in m/s (hover to see current wind gust speed)